User: anonymous   Login
Location: Unspecified
(0.0000°N, 0.0000°E)
Time: 09:28:02
(UTC+02:00)
Language:

H-2A R/B - Orbit

View from above orbital plane
View from above orbital plane
View from above satellite
View from above satellite

Ground track
Ground track

The orbit data is extracted from the following two-line orbital elements,

1 28932U 06002B   18147.83690157  .00000036  00000-0  98810-5 0  9992
2 28932  98.2320  90.1067 0087988 262.0978 154.2159 14.91714915669186
Epoch (UTC): 27 May 2018 20:05:08
Eccentricity: 0.0087988
inclination: 98.2320°
perigee height: 531 km
apogee height: 654 km
right ascension of ascending node: 90.1067°
argument of perigee: 262.0978°
revolutions per day: 14.91714915
mean anomaly at epoch: 154.2159°
orbit number at epoch: 66918

The dashed part of the orbit path shows where the satellite is in the earth's shadow,  

DLR